Time,TemperatureF,DewpointF,PressureIn,WindDirection,WindDirectionDegrees,WindSpeedMPH,WindSpeedGustMPH,Humidity,HourlyPrecipIn,Conditions,Clouds,dailyrainin,SoftwareType,DateUTC
2013-08-29 00:18:00,76.0,74.0,30.02,ESE,110,0.0,1.0,93,0.00,,,0.01,,2013-08-29 04:18:00,
2013-08-29 00:28:00,76.0,74.0,30.02,ESE,110,0.0,1.0,93,0.00,,,0.01,,2013-08-29 04:28:00,
2013-08-29 00:45:00,75.0,73.0,30.02,ESE,110,0.0,1.0,93,0.00,,,0.01,,2013-08-29 04:45:00,
2013-08-29 00:54:00,75.0,73.0,30.02,ESE,117,0.0,1.0,93,0.00,,,0.01,,2013-08-29 04:54:00,
2013-08-29 01:14:00,75.0,73.0,30.01,SE,124,0.0,1.0,92,0.00,,,0.01,,2013-08-29 05:14:00,
2013-08-29 01:23:00,75.0,73.0,30.01,SE,124,0.0,1.0,92,0.00,,,0.01,,2013-08-29 05:23:00,
2013-08-29 01:42:00,74.0,71.0,30.01,ESE,115,0.0,1.0,91,0.00,,,0.01,,2013-08-29 05:42:00,
2013-08-29 01:52:00,74.0,71.0,30.01,ESE,102,0.0,1.0,90,0.00,,,0.01,,2013-08-29 05:52:00,
2013-08-29 02:12:00,74.0,71.0,30.01,ESE,103,0.0,1.0,90,0.00,,,0.01,,2013-08-29 06:12:00,
2013-08-29 02:22:00,74.0,71.0,30.00,ESE,105,0.0,1.0,90,0.00,,,0.01,,2013-08-29 06:22:00,
2013-08-29 02:43:00,74.0,71.0,30.00,ESE,109,0.0,1.0,90,0.00,,,0.01,,2013-08-29 06:43:00,
2013-08-29 02:52:00,74.0,71.0,30.00,ESE,111,0.0,1.0,90,0.00,,,0.01,,2013-08-29 06:52:00,
2013-08-29 03:12:00,74.0,71.0,30.00,ESE,106,0.0,1.0,90,0.00,,,0.01,,2013-08-29 07:12:00,
2013-08-29 03:22:00,74.0,71.0,30.00,East,101,0.0,1.0,90,0.00,,,0.01,,2013-08-29 07:22:00,
2013-08-29 03:42:00,74.0,71.0,30.00,ESE,102,0.0,0.0,90,0.00,,,0.01,,2013-08-29 07:42:00,
2013-08-29 03:53:00,74.0,71.0,30.00,ESE,102,0.0,0.0,91,0.00,,,0.01,,2013-08-29 07:53:00,
2013-08-29 04:12:00,73.0,70.0,29.99,ESE,102,0.0,0.0,91,0.00,,,0.01,,2013-08-29 08:12:00,
2013-08-29 04:22:00,73.0,71.0,29.99,ESE,102,0.0,0.0,92,0.00,,,0.01,,2013-08-29 08:22:00,
2013-08-29 04:42:00,73.0,71.0,29.98,NNE,30,0.0,0.0,92,0.00,,,0.01,,2013-08-29 08:42:00,
2013-08-29 04:52:00,73.0,71.0,29.98,NNE,30,0.0,0.0,93,0.00,,,0.01,,2013-08-29 08:52:00,
2013-08-29 05:12:00,73.0,71.0,29.98,NNE,30,0.0,0.0,94,0.00,,,0.01,,2013-08-29 09:12:00,
2013-08-29 05:22:00,73.0,71.0,29.98,NNE,30,0.0,1.0,94,0.00,,,0.01,,2013-08-29 09:22:00,
2013-08-29 05:43:00,73.0,71.0,29.98,NNE,30,0.0,0.0,94,0.00,,,0.01,,2013-08-29 09:43:00,
2013-08-29 05:55:00,73.0,71.0,29.98,NE,50,0.0,0.0,95,0.00,,,0.01,,2013-08-29 09:55:00,
2013-08-29 06:15:00,72.0,70.0,29.98,NE,49,0.0,0.0,95,0.00,,,0.01,,2013-08-29 10:15:00,
2013-08-29 06:24:00,72.0,70.0,29.98,NE,50,0.0,0.0,95,0.00,,,0.01,,2013-08-29 10:24:00,
2013-08-29 06:53:00,72.0,70.0,29.98,NE,49,0.0,0.0,95,0.00,,,0.01,,2013-08-29 10:53:00,
2013-08-29 07:12:00,71.0,70.0,29.98,NE,49,0.0,0.0,96,0.00,,,0.01,,2013-08-29 11:12:00,
2013-08-29 07:22:00,71.0,70.0,29.99,NE,49,0.0,0.0,96,0.00,,,0.01,,2013-08-29 11:22:00,
2013-08-29 07:42:00,71.0,70.0,29.99,NE,49,0.0,0.0,96,0.00,,,0.01,,2013-08-29 11:42:00,
2013-08-29 07:52:00,72.0,71.0,29.99,NE,50,0.0,0.0,97,0.00,,,0.01,,2013-08-29 11:52:00,
2013-08-29 08:12:00,72.0,71.0,29.99,NE,50,0.0,0.0,97,0.00,,,0.01,,2013-08-29 12:12:00,
2013-08-29 08:22:00,73.0,72.0,30.00,SE,128,0.0,1.0,97,0.00,,,0.01,,2013-08-29 12:22:00,
2013-08-29 08:42:00,76.0,74.0,30.00,SE,140,0.0,2.0,92,0.00,,,0.01,,2013-08-29 12:42:00,
2013-08-29 08:52:00,77.0,73.0,30.00,SE,127,0.0,2.0,88,0.00,,,0.01,,2013-08-29 12:52:00,
2013-08-29 09:12:00,79.0,74.0,30.00,East,84,0.0,3.0,84,0.00,,,0.01,,2013-08-29 13:12:00,
2013-08-29 09:22:00,80.0,74.0,30.01,ESE,107,1.0,2.0,82,0.00,,,0.01,,2013-08-29 13:22:00,
2013-08-29 09:42:00,80.0,73.0,30.01,WSW,239,0.0,1.0,80,0.00,,,0.01,,2013-08-29 13:42:00,
2013-08-29 09:52:00,81.0,73.0,30.01,SE,133,0.0,1.0,78,0.00,,,0.01,,2013-08-29 13:52:00,
2013-08-29 10:11:00,81.0,74.0,30.01,NNE,24,0.0,2.0,79,0.00,,,0.01,,2013-08-29 14:11:00,
2013-08-29 10:22:00,81.0,73.0,30.01,NNE,29,0.0,2.0,78,0.00,,,0.00,,2013-08-29 14:22:00,
2013-08-29 10:42:00,83.0,74.0,30.01,North,355,0.0,3.0,75,0.00,,,0.00,,2013-08-29 14:42:00,
2013-08-29 10:52:00,84.0,73.0,30.01,WSW,257,1.0,2.0,70,0.00,,,0.00,,2013-08-29 14:52:00,
2013-08-29 11:12:00,84.0,72.0,30.01,NE,39,3.0,6.0,68,0.00,,,0.00,,2013-08-29 15:12:00,
2013-08-29 11:22:00,84.0,72.0,30.01,NNW,346,3.0,6.0,67,0.00,,,0.00,,2013-08-29 15:22:00,
2013-08-29 11:43:00,85.0,72.0,30.01,NNE,19,2.0,6.0,65,0.00,,,0.00,,2013-08-29 15:43:00,
2013-08-29 11:53:00,86.0,71.0,30.01,North,358,5.0,10.0,62,0.00,,,0.00,,2013-08-29 15:53:00,
2013-08-29 12:13:00,86.0,73.0,30.01,NNW,347,2.0,12.0,65,0.00,,,0.00,,2013-08-29 16:13:00,
2013-08-29 12:24:00,86.0,73.0,30.01,NNW,345,3.0,10.0,65,0.00,,,0.00,,2013-08-29 16:24:00,
2013-08-29 12:43:00,87.0,73.0,30.00,NNE,27,3.0,9.0,64,0.00,,,0.00,,2013-08-29 16:43:00,
2013-08-29 12:53:00,88.0,74.0,30.00,NNE,22,5.0,9.0,64,0.00,,,0.00,,2013-08-29 16:53:00,
2013-08-29 13:13:00,87.0,75.0,30.00,North,352,3.0,8.0,67,0.00,,,0.00,,2013-08-29 17:13:00,
2013-08-29 13:23:00,88.0,74.0,30.00,North,9,7.0,13.0,63,0.00,,,0.00,,2013-08-29 17:23:00,
2013-08-29 13:44:00,88.0,75.0,30.00,NNW,339,2.0,10.0,65,0.00,,,0.00,,2013-08-29 17:44:00,
2013-08-29 13:53:00,88.0,74.0,30.00,NW,312,2.0,12.0,64,0.00,,,0.00,,2013-08-29 17:53:00,
2013-08-29 14:12:00,89.0,75.0,29.99,North,352,2.0,9.0,63,0.00,,,0.00,,2013-08-29 18:12:00,
2013-08-29 14:22:00,89.0,74.0,29.99,NNW,335,5.0,9.0,61,0.00,,,0.00,,2013-08-29 18:22:00,
2013-08-29 14:42:00,90.0,74.0,29.98,NNW,346,3.0,7.0,59,0.00,,,0.00,,2013-08-29 18:42:00,
2013-08-29 14:52:00,90.0,74.0,29.98,North,351,3.0,9.0,59,0.00,,,0.00,,2013-08-29 18:52:00,
2013-08-29 15:11:00,90.0,73.0,29.98,NNW,342,5.0,10.0,58,0.00,,,0.00,,2013-08-29 19:11:00,
2013-08-29 15:22:00,90.0,73.0,29.98,NNW,342,5.0,10.0,58,0.00,,,0.00,,2013-08-29 19:22:00,
2013-08-29 15:32:00,90.0,73.0,29.98,NNW,342,5.0,10.0,58,0.00,,,0.00,,2013-08-29 19:32:00,
2013-08-29 16:42:00,89.0,76.0,29.93,NE,50,5.0,13.0,65,0.00,,,0.00,,2013-08-29 20:42:00,
2013-08-29 16:52:00,89.0,76.0,29.93,NW,309,6.0,16.0,66,0.00,,,0.00,,2013-08-29 20:52:00,
2013-08-29 17:12:00,89.0,75.0,29.93,NNW,338,5.0,13.0,64,0.00,,,0.00,,2013-08-29 21:12:00,
2013-08-29 17:22:00,89.0,75.0,29.93,NNW,332,7.0,16.0,64,0.00,,,0.00,,2013-08-29 21:22:00,
2013-08-29 17:44:00,89.0,76.0,29.92,North,358,3.0,12.0,65,0.00,,,0.00,,2013-08-29 21:44:00,
2013-08-29 17:54:00,89.0,76.0,29.92,NNW,327,5.0,13.0,65,0.00,,,0.00,,2013-08-29 21:54:00,
2013-08-29 18:14:00,88.0,74.0,29.92,North,0,5.0,13.0,64,0.00,,,0.00,,2013-08-29 22:14:00,
2013-08-29 18:24:00,88.0,75.0,29.92,NNW,335,3.0,14.0,65,0.00,,,0.00,,2013-08-29 22:24:00,
2013-08-29 18:43:00,88.0,75.0,29.92,North,358,6.0,12.0,65,0.00,,,0.00,,2013-08-29 22:43:00,
2013-08-29 18:53:00,87.0,74.0,29.92,ENE,78,6.0,13.0,66,0.00,,,0.00,,2013-08-29 22:53:00,
2013-08-29 19:13:00,87.0,74.0,29.92,NW,322,5.0,10.0,66,0.00,,,0.00,,2013-08-29 23:13:00,
2013-08-29 19:22:00,86.0,75.0,29.92,NW,326,3.0,12.0,69,0.00,,,0.00,,2013-08-29 23:22:00,
2013-08-29 19:53:00,85.0,75.0,29.92,NW,326,2.0,10.0,73,0.00,,,0.00,,2013-08-29 23:53:00,
2013-08-29 20:12:00,85.0,76.0,29.92,North,349,2.0,6.0,75,0.00,,,0.00,,2013-08-30 00:12:00,
2013-08-29 20:22:00,84.0,76.0,29.93,NE,39,1.0,5.0,76,0.00,,,0.00,,2013-08-30 00:22:00,
2013-08-29 20:42:00,84.0,76.0,29.94,NNW,335,2.0,5.0,77,0.00,,,0.00,,2013-08-30 00:42:00,
2013-08-29 20:52:00,83.0,75.0,29.94,NE,37,1.0,5.0,78,0.00,,,0.00,,2013-08-30 00:52:00,
2013-08-29 21:12:00,83.0,75.0,29.94,NE,53,2.0,3.0,77,0.00,,,0.00,,2013-08-30 01:12:00,
2013-08-29 21:22:00,83.0,75.0,29.95,North,8,3.0,8.0,76,0.00,,,0.00,,2013-08-30 01:22:00,
2013-08-29 21:42:00,83.0,75.0,29.95,NNE,14,1.0,3.0,76,0.00,,,0.00,,2013-08-30 01:42:00,
2013-08-29 21:52:00,83.0,74.0,29.95,WNW,302,1.0,3.0,75,0.00,,,0.00,,2013-08-30 01:52:00,
2013-08-29 22:11:00,83.0,74.0,29.95,NNW,347,2.0,10.0,75,0.00,,,0.00,,2013-08-30 02:11:00,
2013-08-29 22:22:00,83.0,75.0,29.96,NNE,26,1.0,3.0,76,0.00,,,0.00,,2013-08-30 02:22:00,
2013-08-29 22:42:00,83.0,75.0,29.96,North,5,0.0,3.0,77,0.00,,,0.00,,2013-08-30 02:42:00,
2013-08-29 22:52:00,83.0,75.0,29.96,NNE,30,1.0,3.0,77,0.00,,,0.00,,2013-08-30 02:52:00,
2013-08-29 23:12:00,83.0,75.0,29.96,North,351,1.0,5.0,76,0.00,,,0.00,,2013-08-30 03:12:00,
2013-08-29 23:22:00,83.0,75.0,29.96,NNE,14,0.0,8.0,76,0.00,,,0.00,,2013-08-30 03:22:00,
2013-08-29 23:55:00,83.0,75.0,29.97,NNW,331,1.0,3.0,77,0.00,,,0.00,,2013-08-30 03:55:00,